Weather in Korba

India     22°20′48″N   82°42′17″E
temp.,
°C
wind,
m/s
gust,
m/s
humid.,
%
clouds,
%
prec.,
mm/h
press.,
hPa
HPBL,
m
18 april, sun
sun1823:30+28nw11240 0.0 100911
02:30+26nnw22290 0.0 100812
05:30+24nnw11312 0.0 100912
08:30+35n23160 0.0 1011498
11:30+40wnw45103 0.0 10094622
14:30+42nw359100 0.0 10045262
17:30+39nw661076 0.0 10032186
20:30+31nnw231561 0.0 100622
19 april, mon
mon1923:30+29ne111755 0.0 100711
02:30+26nne222071 0.0 100619
05:30+24n222236 0.0 100722
08:30+34s22125 0.0 1009538
11:30+40wsw2783 0.0 10073655
14:30+41ssw4673 0.0 10034906
17:30+40w34895 0.0 1002385
20:30+32n221132 0.0 100513
20 april, tue
tue2023:30+28nne22130 0.0 100512
02:30+26nne22135 0.0 100412
05:30+25se22142 0.0 100612
08:30+35ese1385 0.0 1007460
11:30+41s4560 0.0 10054197
14:30+43sw33614 0.0 10025040
17:30+40wsw35797 0.0 1001157
20:30+32ssw22104 0.0 100311
21 april, wed
wed2123:30+30nnw221292 0.0 100419
02:30+27nnw121330 0.0 100313
05:30+26w22165 0.0 100612
08:30+35w341285 0.0 1008585
11:30+43nnw5574 0.0 10054508
14:30+44nw34783 0.0 10025338
17:30+41nw571091 0.0 10021390
20:30+33n481780 0.0 1005164
22 april, thu
thu2223:30+30nnw3420100 0.0 100540
02:30+29e1121100 0.0 100520
05:30+27nnw332364 0.0 100635
08:30+36wnw34137 0.0 1008676
11:30+41wnw35969 0.0 10063711
14:30+43w569100 0.0 10025257
17:30+39w1110100 0.0 100220
20:30+34n3814100 0.0 1005141